Flag for U.S.A. Weather past 2 weeks in Oberlin, Ohio, U.S.A.

Now
1 °F

Clear.


Feels Like: -9 °F
Forecast: 0 / 22 °F
Wind: 5 mph from Southwest

Location: Lorain County Regional Airport

Current Time: Mar 6, 2015 at 2:28:19 AM

Latest Report: Mar 6, 2015 at 1:53 AM


Visibility: 10 mi

Pressure: 30.57 "Hg

Humidity: 83%

Dew point: -3 °F

Location of OberlinLocation

Historic Weather in Oberlin — Graph

°F

Oberlin temperature yesterday

Maximum temperature yesterday: 19 °F (at 12:53 AM)
Minimum temperature yesterday: 5 °F (at 10:53 PM)
Average temperature yesterday: 12 °F

Past Weeks' High & Low Weather Summary

 TemperatureHumidityPressure
High41 °F (Mar 3, 4:53 PM)96% (Feb 21, 1:53 PM)30.85 "Hg (Feb 21, 1:53 PM)
Low-13 °F (Feb 20, 7:53 AM)34% (Feb 28, 3:53 PM)29.66 "Hg (Mar 3, 5:53 PM)
Average13 °F72%30.27 "Hg
* Reported Feb 19 12:53 AM — Mar 6 12:53 AM, Oberlin, Weather by CustomWeather, © 2015

Note: Actual official high and low records may vary slightly from our data, if they occured in-between our weather recording intervals... More about our weather records

Advertising

Oberlin weather history for previous 24 hours

 ConditionsComfort  
Time TempWeatherWind HumidityBarometerVisibility
12:53 AM
Fri, Mar 6
5 °FClear.6 mph76%30.55 "Hg10 mi
11:53 PM
Thu, Mar 5
5 °FClear.3 mph80%30.56 "Hg10 mi
10:53 PM5 °FClear.6 mph76%30.56 "Hg10 mi
9:53 PM7 °FClear.6 mph73%30.56 "Hg10 mi
8:53 PM8 °FClear.6 mph66%30.55 "Hg10 mi
7:53 PM11 °FClear.5 mph61%30.54 "Hg10 mi
6:53 PM11 °FClear.3 mph61%30.52 "Hg10 mi
5:53 PM13 °FPassing clouds.10 mph59%30.49 "Hg10 mi
4:53 PM14 °FPassing clouds.8 mph58%30.46 "Hg10 mi
3:53 PM14 °FScattered clouds.12 mph58%30.44 "Hg10 mi
2:53 PM14 °FScattered clouds.13 mph58%30.42 "Hg10 mi
1:53 PM13 °FPassing clouds.12 mph61%30.41 "Hg10 mi
12:53 PM14 °FPartly sunny.12 mph58%30.41 "Hg10 mi
11:53 AM13 °FScattered clouds.8 mph64%30.41 "Hg10 mi
10:53 AM12 °FPassing clouds.9 mph67%30.39 "Hg10 mi
9:53 AM12 °FSunny.9 mph64%30.41 "Hg10 mi
8:53 AM11 °FSunny.13 mph73%30.36 "Hg10 mi
7:53 AM12 °FPartly sunny.10 mph73%30.36 "Hg10 mi
6:53 AM13 °FPassing clouds.13 mph67%30.32 "Hg10 mi
5:53 AM13 °FClear.13 mph67%30.32 "Hg10 mi
4:53 AM14 °FPassing clouds.15 mph61%30.31 "Hg10 mi
3:53 AM15 °FPassing clouds.13 mph58%30.28 "Hg10 mi
2:53 AM17 °FOvercast.15 mph59%30.28 "Hg10 mi
Weather by CustomWeather, © 2015

See weather overviewHow to use our weather pages